Vorticity
10 5 6 9 -0 9 3 32 11 2 3 1 2 5 7 10 8 6 8 11 6 4 4 6 8 5 2 -6 2 3 24 7 7 6 3 5 5 8 5 8 10 9 6 5
12 8 7 5 10 -1 16 5 4 10 3 3 3 3 2 3 7 4 5 5 5 4 4 0 -2 -3 -2 2 15 21 5 8 7 8 8 9 8 9 8 9 8 5 10 13
14 11 7 8 6 8 -0 5 23 6 6 -0 2 2 5 5 5 3 4 6 5 6 6 4 3 10 12 8 13 5 10 9 8 9 10 10 10 9 10 8 9 10 8 6
15 7 8 6 2 8 5 10 14 11 -10 25 4 6 3 5 5 4 7 2 1 1 3 5 1 5 30 11 7 9 8 9 10 10 9 9 10 11 10 8 6 6 7 9
14 8 10 8 6 7 3 10 15 4 -12 39 9 9 2 5 5 8 20 23 23 19 14 19 22 14 4 10 8 8 7 8 8 8 9 8 5 5 9 13 14 11 9 9
26 8 9 9 4 10 8 14 4 4 6 5 19 9 5 3 6 15 4 5 7 9 12 14 13 5 9 8 8 8 8 8 8 6 6 7 11 13 8 5 7 6 5 7
29 16 2 16 6 5 9 6 8 2 -11 1 18 20 2 6 3 2 4 12 9 8 12 8 5 7 9 8 7 9 9 8 6 8 10 11 8 4 6 5 5 6 7 6
13 27 5 2 9 7 8 8 -5 -5 5 5 3 27 4 11 5 6 -0 -1 10 7 6 8 9 10 9 9 9 9 7 7 8 11 9 5 5 7 5 6 7 7 7 9
15 17 22 15 5 13 13 3 10 24 -1 7 9 17 28 32 23 10 7 5 14 9 8 8 7 7 9 10 7 7 8 10 11 6 6 7 9 6 5 7 6 8 6 8
10 8 10 13 18 10 15 16 10 3 5 8 16 11 15 4 9 8 8 2 17 4 11 6 7 8 8 6 7 9 11 10 7 6 8 9 8 4 5 6 8 5 6 7
4 8 14 16 10 7 15 12 0 14 6 -2 2 21 9 -7 1 11 8 17 7 7 13 12 7 8 11 10 9 11 11 7 5 5 5 6 7 5 6 6 7 5 4 4
18 10 13 15 23 20 14 17 14 12 9 7 4 1 9 5 4 -4 3 6 7 5 14 15 16 14 10 7 11 9 8 4 3 3 4 6 8 8 7 7 7 6 4 5
12 27 2 13 7 9 6 7 14 7 3 9 7 -5 1 10 9 6 30 8 8 6 11 13 15 12 9 8 10 6 4 3 3 3 5 6 7 9 7 6 7 8 8 8
-6 8 20 5 16 9 16 10 2 10 12 2 10 10 8 -0 1 8 -6 1 23 12 17 10 15 13 9 8 6 7 4 5 6 8 8 8 7 9 8 7 9 9 8 10
13 11 10 25 -9 13 6 15 16 9 7 13 -1 4 8 3 4 6 10 12 8 9 12 9 4 6 8 6 7 5 5 6 9 8 8 8 10 9 8 9 8 9 10 9
6 11 9 12 26 -4 10 4 15 15 5 11 13 13 8 8 16 11 5 3 3 8 16 11 10 9 7 7 5 5 8 10 10 8 9 11 10 9 8 9 10 9 9 9
3 8 12 5 16 15 8 8 10 11 13 0 24 2 6 5 2 3 5 7 8 10 11 10 9 11 7 5 7 9 11 9 9 11 11 11 10 9 9 9 9 9 10 8
4 5 4 16 5 16 25 10 -2 12 8 11 -3 2 1 0 1 8 12 8 3 7 10 10 8 7 6 8 9 11 9 9 12 11 9 9 10 11 10 9 9 11 8 7
4 7 5 2 10 18 8 14 23 7 1 12 10 6 4 6 8 9 6 5 3 6 5 4 6 6 9 9 9 10 9 9 11 11 10 11 11 11 11 11 11 8 7 8
8 5 3 4 3 6 4 12 21 10 28 4 5 6 8 9 7 7 10 7 8 9 10 11 7 8 9 9 8 8 10 10 7 10 10 8 9 11 12 11 10 10 11 9
9 3 1 1 5 13 7 2 10 24 -0 13 8 7 8 4 9 17 13 10 12 9 11 8 8 9 9 7 8 7 6 6 7 6 6 10 11 11 10 10 10 8 8 8
14 13 3 4 -1 14 6 9 6 17 11 20 5 24 9 13 9 8 17 17 8 12 10 9 10 9 6 7 6 4 4 4 6 6 6 5 6 8 9 9 8 7 9 9
13 16 -2 7 9 7 5 11 6 10 18 13 11 26 3 21 11 16 19 13 8 2 8 8 9 6 7 6 6 5 4 3 6 7 5 4 5 7 8 10 10 9 8 7
18 1 21 -1 10 8 2 8 8 13 15 19 16 13 8 24 22 13 20 11 7 8 9 10 6 6 5 5 5 5 4 3 5 5 5 4 6 7 7 9 8 7 7 6
10 7 2 12 13 6 7 7 0 1 42 10 13 19 17 14 16 19 14 8 11 8 8 6 6 5 5 3 3 4 4 3 5 5 5 4 4 4 6 8 7 7 6 6
11 19 -2 10 7 9 6 3 11 20 -8 21 24 16 14 18 21 16 8 10 11 8 7 4 5 7 6 5 6 5 5 4 5 5 6 7 4 5 4 7 7 6 5 5
Height
5737 5745 5751 5758 5765 5770 5775 5781 5787 5790 5794 5799 5803 5808 5812 5815 5818 5821 5824 5827 5829 5830 5833 5834 5837 5839 5841 5843 5844 5844 5844 5843 5840 5840 5841 5841 5840 5839 5839 5839 5838 5836 5835 5834
5728 5735 5745 5749 5755 5762 5764 5766 5773 5780 5784 5788 5793 5798 5802 5806 5809 5811 5814 5819 5822 5824 5826 5827 5830 5832 5834 5834 5835 5836 5837 5837 5836 5835 5835 5835 5834 5833 5833 5832 5831 5830 5828 5827
5719 5727 5735 5740 5745 5752 5756 5760 5766 5771 5775 5778 5782 5785 5789 5796 5800 5804 5808 5812 5814 5816 5818 5820 5822 5823 5825 5826 5827 5828 5829 5830 5830 5829 5829 5829 5828 5827 5826 5825 5824 5822 5819 5817
5709 5717 5724 5731 5737 5745 5750 5757 5759 5763 5766 5768 5774 5776 5780 5787 5792 5797 5802 5805 5807 5808 5810 5812 5814 5816 5816 5818 5819 5820 5821 5822 5822 5822 5822 5821 5819 5819 5819 5818 5817 5815 5813 5811
5703 5709 5715 5723 5733 5738 5745 5748 5751 5754 5754 5756 5761 5766 5770 5777 5782 5791 5798 5799 5799 5800 5802 5804 5806 5809 5810 5811 5811 5812 5813 5813 5814 5814 5814 5814 5814 5813 5812 5810 5809 5807 5805 5803
5693 5699 5707 5716 5724 5730 5732 5733 5733 5737 5739 5743 5750 5752 5756 5767 5780 5788 5791 5792 5791 5790 5793 5797 5799 5801 5803 5805 5805 5806 5807 5807 5807 5807 5807 5807 5806 5805 5804 5802 5801 5799 5796 5794
5686 5691 5699 5706 5713 5716 5716 5719 5723 5727 5730 5738 5740 5743 5750 5759 5770 5779 5782 5782 5781 5782 5787 5790 5791 5794 5797 5798 5800 5801 5802 5802 5801 5801 5800 5800 5799 5798 5796 5795 5793 5790 5788 5785
5676 5682 5691 5698 5703 5708 5707 5709 5713 5716 5721 5728 5728 5734 5737 5750 5762 5767 5771 5772 5774 5779 5781 5783 5785 5788 5791 5792 5793 5794 5795 5796 5796 5796 5795 5795 5793 5792 5790 5789 5786 5784 5781 5779
5669 5674 5682 5688 5692 5695 5696 5698 5718 5715 5718 5721 5728 5734 5738 5749 5754 5759 5762 5768 5772 5774 5775 5775 5779 5782 5785 5786 5787 5789 5789 5790 5790 5790 5789 5788 5786 5785 5784 5782 5780 5777 5775 5772
5662 5666 5671 5675 5678 5683 5688 5702 5702 5702 5707 5710 5716 5721 5727 5740 5748 5755 5760 5764 5766 5766 5767 5769 5772 5776 5778 5780 5781 5783 5783 5784 5784 5784 5782 5780 5779 5777 5776 5774 5773 5771 5768 5764
5653 5656 5662 5666 5670 5677 5682 5682 5691 5701 5703 5705 5712 5717 5725 5733 5741 5749 5754 5757 5758 5758 5761 5763 5766 5769 5771 5773 5775 5776 5776 5777 5777 5777 5775 5773 5771 5770 5768 5766 5764 5762 5759 5756
5643 5645 5651 5659 5662 5668 5673 5679 5685 5690 5693 5696 5701 5708 5717 5725 5732 5740 5745 5749 5750 5753 5755 5757 5759 5760 5763 5765 5767 5768 5768 5768 5768 5768 5767 5766 5764 5763 5760 5758 5756 5753 5751 5747
5632 5633 5639 5645 5651 5656 5661 5670 5675 5681 5687 5689 5697 5702 5712 5719 5726 5733 5737 5741 5743 5747 5749 5751 5751 5752 5754 5756 5759 5760 5761 5761 5761 5760 5759 5758 5756 5754 5752 5750 5747 5744 5740 5737
5619 5622 5628 5637 5647 5653 5655 5660 5665 5671 5676 5681 5686 5693 5702 5711 5717 5725 5730 5733 5736 5739 5741 5743 5745 5745 5746 5748 5751 5753 5753 5754 5754 5753 5752 5750 5748 5746 5743 5741 5738 5735 5731 5728
5611 5614 5618 5627 5634 5638 5644 5649 5656 5661 5668 5673 5681 5685 5694 5702 5709 5716 5721 5724 5727 5731 5734 5737 5738 5738 5739 5740 5744 5744 5745 5746 5746 5744 5742 5741 5739 5737 5734 5732 5729 5726 5722 5719
5602 5607 5611 5613 5621 5626 5631 5637 5644 5653 5658 5663 5668 5677 5686 5690 5697 5706 5711 5715 5719 5724 5727 5729 5729 5730 5731 5734 5737 5736 5737 5738 5737 5735 5734 5732 5730 5728 5725 5722 5719 5717 5714 5710
5593 5597 5602 5604 5610 5614 5615 5629 5637 5643 5649 5654 5657 5667 5672 5680 5688 5695 5701 5708 5712 5715 5717 5718 5720 5722 5724 5728 5728 5729 5729 5729 5728 5728 5726 5723 5721 5719 5716 5714 5711 5708 5705 5701
5582 5587 5590 5594 5596 5596 5615 5620 5630 5634 5640 5647 5650 5657 5663 5670 5677 5683 5689 5694 5700 5703 5706 5710 5712 5713 5718 5719 5720 5721 5721 5721 5721 5720 5717 5715 5713 5710 5708 5706 5703 5700 5696 5692
5570 5574 5578 5580 5586 5594 5595 5614 5623 5626 5632 5637 5641 5648 5655 5661 5664 5669 5675 5682 5689 5694 5697 5700 5702 5707 5710 5711 5712 5713 5713 5714 5714 5712 5709 5707 5705 5702 5700 5698 5695 5691 5688 5683
5554 5561 5564 5570 5573 5577 5598 5603 5613 5614 5611 5631 5633 5640 5646 5650 5652 5661 5668 5676 5682 5686 5689 5691 5695 5699 5701 5702 5704 5706 5707 5707 5705 5703 5702 5700 5697 5695 5693 5690 5686 5683 5678 5673
5537 5542 5548 5558 5561 5572 5582 5594 5599 5600 5618 5624 5627 5632 5636 5639 5648 5656 5660 5667 5673 5676 5678 5681 5687 5690 5692 5695 5697 5699 5699 5698 5697 5696 5694 5693 5691 5688 5685 5682 5678 5674 5669 5664
5522 5530 5537 5545 5550 5556 5575 5581 5589 5608 5608 5612 5620 5622 5625 5632 5638 5646 5653 5657 5661 5665 5670 5676 5680 5682 5684 5687 5689 5691 5691 5690 5689 5689 5688 5686 5684 5681 5678 5674 5670 5665 5660 5655
5504 5513 5526 5531 5543 5558 5565 5572 5582 5590 5594 5599 5604 5609 5613 5619 5627 5635 5642 5647 5651 5657 5663 5667 5670 5674 5676 5679 5682 5683 5683 5682 5682 5681 5681 5679 5676 5673 5670 5666 5661 5656 5651 5646
5488 5498 5506 5516 5530 5540 5550 5560 5570 5578 5584 5586 5593 5598 5603 5609 5615 5624 5631 5636 5641 5648 5654 5658 5661 5665 5669 5672 5674 5675 5675 5675 5674 5673 5673 5671 5669 5666 5661 5657 5652 5647 5642 5637
5473 5483 5493 5502 5520 5528 5539 5550 5561 5569 5573 5577 5581 5589 5595 5601 5607 5614 5620 5626 5633 5640 5645 5649 5654 5658 5662 5664 5665 5666 5666 5666 5666 5665 5664 5663 5660 5656 5652 5648 5643 5638 5633 5627
5462 5478 5478 5495 5507 5511 5522 5530 5546 5554 5563 5568 5573 5580 5588 5592 5598 5604 5609 5617 5625 5632 5637 5641 5646 5651 5653 5655 5657 5657 5657 5657 5657 5657 5656 5654 5650 5647 5642 5638 5634 5629 5624 5618